Time_in_sec,Latitude,Longitude,Altitude,Nbsat_max_qualitysignal,Nbsat_locked,valid_data
1314889929.30784178,46.54710007,8.71081448,1978.44738770,6,7,1
1314890028.25931144,46.54708481,8.71080589,1976.94543457,3,6,1
1314890028.30732465,46.54708862,8.71080589,1976.99194336,3,6,1
1314890028.36017489,46.54708481,8.71080589,1976.98095703,3,6,1
1314890028.41131425,46.54708481,8.71080589,1976.96997070,3,6,1
1314890028.46024561,46.54708481,8.71080589,1976.95886230,3,6,1
1314890028.50734305,46.54708481,8.71080589,1976.94775391,3,6,1
1314890028.55920935,46.54708481,8.71080589,1976.99377441,3,6,1
1314890028.60734558,46.54708481,8.71080589,1976.98291016,3,6,1
1314890028.65617728,46.54708481,8.71080589,1976.97180176,3,6,1
1314890028.70722318,46.54708481,8.71080589,1976.96069336,3,6,1
1314890028.75936198,46.54708481,8.71080589,1976.94970703,3,6,1
1314890028.80731058,46.54708481,8.71080589,1976.99609375,3,6,1
1314890028.85923362,46.54708481,8.71080589,1976.98510742,3,6,1
1314890028.90719438,46.54708481,8.71080494,1976.97412109,3,6,1
1314890028.95594168,46.54708481,8.71080494,1976.96313477,3,6,1
1314890029.00791121,46.54708481,8.71080494,1976.95214844,3,6,1
1314890029.05597973,46.54708481,8.71080494,1976.99523926,3,6,1
1314890029.10824132,46.54708481,8.71080494,1976.98437500,3,6,1
1314890029.15664101,46.54708481,8.71080494,1976.97351074,3,6,1
1314890029.20788383,46.54708481,8.71080494,1976.96252441,3,6,1
1314890029.25933766,46.54708481,8.71080494,1976.95153809,3,6,1
1314890029.30778193,46.54708481,8.71080494,1976.99084473,3,6,1
1314890029.35587621,46.54708481,8.71080399,1976.97998047,3,6,1
1314890029.41130400,46.54708099,8.71080399,1976.96899414,3,6,1
1314890029.46024632,46.54708099,8.71080399,1976.95812988,3,6,1
1314890029.50774002,46.54708099,8.71080399,1976.94702148,3,6,1
1314890029.55574870,46.54708099,8.71080399,1976.98986816,3,6,1
1314890029.60841012,46.54708099,8.71080399,1976.97912598,3,6,1
1314890029.65560603,46.54708099,8.71080399,1976.96813965,3,6,1
1314890029.70758271,46.54708099,8.71080399,1976.95727539,3,6,1
1314890029.75558901,46.54708099,8.71080399,1976.94628906,3,6,1
1314890029.80760860,46.54708099,8.71080399,1976.98889160,3,6,1
1314890029.85632181,46.54708099,8.71080399,1976.97814941,3,6,1
1314890029.90764880,46.54708099,8.71080399,1976.96728516,3,6,1
1314890029.96032429,46.54708099,8.71080399,1976.95642090,3,6,1
1314890030.00764251,46.54708099,8.71080303,1976.94543457,3,6,1
1314890030.06032038,46.54708099,8.71080303,1976.98461914,3,6,1
1314890030.10728240,46.54708099,8.71080303,1976.97375488,3,6,1
1314890030.16028070,46.54708099,8.71080303,1976.96289062,3,6,1
1314890030.20748591,46.54708099,8.71080303,1976.95202637,3,6,1
1314890030.25935507,46.54708099,8.71080303,1976.94116211,3,6,1
1314890030.30824184,46.54708099,8.71080303,1976.98144531,3,6,1
1314890030.35752225,46.54708099,8.71080303,1976.97070312,3,6,1
1314890030.40775657,46.54708099,8.71080303,1976.95983887,3,6,1
1314890030.45547771,46.54708099,8.71080303,1976.94909668,3,6,1
1314890030.50738096,46.54708099,8.71080303,1976.93823242,4,6,1
1314890030.55531263,46.54708099,8.71080208,1976.97814941,4,6,1
1314890030.60843492,46.54708099,8.71080208,1976.96740723,4,6,1
1314890030.65537262,46.54708099,8.71080208,1976.95666504,4,6,1
1314890030.70721245,46.54708099,8.71080208,1976.94580078,4,6,1
1314890030.75530910,46.54708099,8.71080208,1976.93505859,4,6,1
1314890030.80836058,46.54708099,8.71080208,1976.97583008,4,6,1
1314890030.85531139,46.54708099,8.71080208,1976.96508789,4,6,1
1314890030.90719223,46.54708099,8.71080208,1976.95434570,4,6,1
1314890030.96044421,46.54708099,8.71080208,1976.94348145,4,6,1
1314890031.00730944,46.54708099,8.71080208,1976.93273926,4,6,1
1314890031.05621481,46.54708099,8.71080208,1976.97094727,4,6,1
1314890031.10821056,46.54708099,8.71080208,1976.96020508,4,6,1
1314890031.15680885,46.54708099,8.71080208,1976.94946289,4,6,1
1314890031.20718527,46.54708099,8.71080208,1976.93859863,4,6,1
1314890031.25921679,46.54708099,8.71080208,1976.92773438,4,6,1
1314890031.30718851,46.54708099,8.71080208,1976.97460938,4,6,1
1314890031.36035466,46.54708099,8.71080208,1976.96386719,4,6,1
1314890031.40722561,46.54708099,8.71080208,1976.95312500,4,6,1
1314890031.45636511,46.54708099,8.71080112,1976.94238281,4,6,1
1314890031.50726342,46.54708099,8.71080112,1976.93151855,4,6,1
1314890031.56032896,46.54708099,8.71080112,1976.97314453,4,6,1
1314890031.60821366,46.54708099,8.71080112,1976.96240234,4,6,1
1314890031.65924335,46.54708099,8.71080112,1976.95166016,4,6,1
1314890031.70749116,46.54708099,8.71080112,1976.94079590,4,6,1
1314890031.75922275,46.54707718,8.71080112,1976.92993164,4,6,1
1314890031.80731726,46.54708099,8.71080112,1976.97363281,4,6,1
1314890031.85604620,46.54707718,8.71080112,1976.96154785,4,6,1
1314890031.90769720,46.54707718,8.71080112,1976.95080566,4,6,1
1314890031.95602226,46.54707718,8.71080112,1976.93994141,4,6,1
1314890032.00822210,46.54707718,8.71080112,1976.92919922,4,6,1
1314890032.05634117,46.54708099,8.71080112,1976.97363281,4,6,1
1314890032.10732365,46.54707718,8.71080112,1976.96289062,4,6,1
1314890032.15598035,46.54707718,8.71080112,1976.95214844,4,6,1
1314890032.20722628,46.54707718,8.71080112,1976.94140625,4,6,1
1314890032.26023936,46.54707718,8.71080112,1976.93066406,4,6,1
1314890032.30781054,46.54708099,8.71080112,1976.97521973,4,6,1
1314890032.35633731,46.54708099,8.71080112,1976.96459961,4,6,1
1314890032.40732765,46.54707718,8.71080112,1976.95397949,4,6,1
1314890032.45638061,46.54707718,8.71080112,1976.94323730,4,6,1
1314890032.50732422,46.54707718,8.71080112,1976.93249512,4,6,1
1314890032.55631638,46.54707718,8.71080112,1976.97631836,4,6,1
1314890032.60844231,46.54707718,8.71080112,1976.96569824,4,6,1
1314890032.65962791,46.54707718,8.71080112,1976.95495605,4,6,1
1314890032.70837855,46.54707718,8.71080112,1976.94433594,4,6,1
1314890032.75564671,46.54707718,8.71080112,1976.93359375,4,6,1
1314890032.80730820,46.54707718,8.71080112,1976.97241211,4,6,1
1314890032.85563231,46.54707718,8.71080112,1976.96447754,4,6,1
1314890032.90833139,46.54707718,8.71080112,1976.95385742,4,6,1
1314890032.95634294,46.54707718,8.71080112,1976.94323730,4,6,1
1314890033.00720811,46.54707718,8.71080112,1976.93261719,4,6,1
1314890033.05633998,46.54708099,8.71080112,1976.97338867,4,6,1
1314890033.10730720,46.54708099,8.71080112,1976.96289062,4,6,1
1314890033.15562320,46.54708099,8.71080112,1976.95227051,4,6,1
1314890033.20824313,46.54708099,8.71080112,1976.94165039,4,6,1
1314890033.25634003,46.54708099,8.71080112,1976.93103027,4,6,1
1314890033.30831718,46.54708099,8.71080112,1976.96630859,4,6,1
1314890033.36032152,46.54708099,8.71080112,1976.95568848,4,6,1
1314890033.40834332,46.54708099,8.71080112,1976.94519043,4,6,1
1314890033.45549369,46.54708099,8.71080112,1976.93457031,4,6,1
1314890033.50735664,46.54708099,8.71080112,1976.92382812,4,6,1
1314890033.55548787,46.54708099,8.71080208,1976.95288086,4,6,1
1314890033.60934925,46.54708099,8.71080112,1976.94226074,4,6,1
1314890033.65532136,46.54708099,8.71080112,1976.93151855,4,6,1
1314890033.70831633,46.54708099,8.71080112,1976.92089844,4,6,1
1314890033.75530148,46.54708099,8.71080112,1976.91027832,4,6,1
1314890033.80826378,46.54708099,8.71080208,1976.93786621,4,6,1
1314890033.85742807,46.54708099,8.71080208,1976.92724609,4,6,1
1314890033.90832210,46.54708099,8.71080208,1976.91662598,4,6,1
1314890033.95979238,46.54708099,8.71080208,1976.90588379,4,6,1
1314890034.00823045,46.54708099,8.71080208,1976.89514160,4,6,1
1314890034.05934334,46.54708099,8.71080208,1976.91662598,4,6,1
1314890034.10630369,46.54708099,8.71080208,1976.90588379,4,6,1
1314890034.15623665,46.54708099,8.71080208,1976.89514160,4,6,1
1314890034.20655346,46.54708099,8.71080208,1976.88427734,4,6,1
1314890034.25621867,46.54708099,8.71080208,1976.87341309,4,6,1
1314890034.30724478,46.54708481,8.71080303,1976.88732910,4,6,1
1314890034.35622859,46.54708481,8.71080303,1976.87646484,4,6,1
1314890034.40825033,46.54708481,8.71080303,1976.86560059,4,6,1
1314890034.45607924,46.54708481,8.71080303,1976.85461426,4,6,1
1314890034.49598002,46.54708481,8.71080303,1976.84375000,4,6,1
1314890034.55606437,46.54708481,8.71080399,1976.85839844,4,6,1
1314890034.61061502,46.54708481,8.71080399,1976.84521484,4,6,1
1314890034.65593076,46.54708481,8.71080303,1976.83422852,4,6,1
1314890034.70719743,46.54708481,8.71080303,1976.82324219,4,6,1
1314890034.75924349,46.54708481,8.71080303,1976.81213379,4,6,1
1314890034.80730748,46.54708481,8.71080399,1976.83056641,4,6,1
1314890034.86032057,46.54708481,8.71080399,1976.81945801,4,6,1
1314890034.90800714,46.54708481,8.71080399,1976.80847168,4,6,1
1314890034.95632505,46.54708481,8.71080399,1976.79736328,4,6,1
1314890035.00726247,46.54708481,8.71080399,1976.78625488,4,6,1
1314890035.05932188,46.54708481,8.71080494,1976.80090332,4,6,1
1314890035.10719681,46.54708481,8.71080494,1976.78979492,4,6,1
1314890035.15923476,46.54708481,8.71080494,1976.77868652,4,6,1
1314890035.20719361,46.54708481,8.71080494,1976.76757812,4,6,1
1314890035.25571084,46.54708481,8.71080494,1976.75634766,4,6,1
1314890035.30730844,46.54708862,8.71080589,1976.76098633,4,6,1
1314890035.35580206,46.54708862,8.71080589,1976.74975586,4,6,1
1314890035.40832877,46.54708862,8.71080589,1976.73852539,4,6,1
1314890035.45635438,46.54708862,8.71080589,1976.72717285,4,6,1
1314890035.50733352,46.54708862,8.71080494,1976.71582031,4,6,1
1314890035.55931187,46.54708862,8.71080589,1976.71997070,4,6,1
1314890035.60842633,46.54708862,8.71080589,1976.70861816,4,6,1
1314890035.65633249,46.54708862,8.71080589,1976.69726562,4,6,1
1314890035.70733213,46.54708862,8.71080589,1976.68579102,4,6,1
1314890035.75628686,46.54708862,8.71080589,1976.67431641,4,6,1
1314890035.80725551,46.54708862,8.71080685,1976.67822266,4,6,1
1314890035.85632253,46.54708862,8.71080685,1976.66674805,4,6,1
1314890035.90734196,46.54708862,8.71080685,1976.65515137,4,6,1
1314890035.95633149,46.54708862,8.71080685,1976.64355469,4,6,1
1314890036.00731134,46.54708862,8.71080685,1976.63195801,4,6,1
1314890036.06033087,46.54708862,8.71080685,1976.63354492,4,6,1
1314890036.10722351,46.54708862,8.71080685,1976.62182617,4,6,1
1314890036.15933728,46.54708862,8.71080685,1976.61022949,4,6,1
1314890036.20735741,46.54708862,8.71080685,1976.59851074,4,6,1
1314890036.26035905,46.54708862,8.71080685,1976.58679199,4,6,1
1314890036.30734515,46.54708862,8.71080780,1976.59020996,4,6,1
1314890036.35634422,46.54708862,8.71080780,1976.57849121,4,6,1
1314890036.40833592,46.54708862,8.71080780,1976.56677246,4,6,1
1314890036.45635796,46.54708862,8.71080780,1976.55493164,4,6,1
1314890036.50834537,46.54708862,8.71080780,1976.54321289,6,6,1
1314890036.55635571,46.54709244,8.71080780,1976.54479980,6,6,1
1314890036.60843253,46.54709244,8.71080780,1976.53295898,6,6,1
1314890036.65623498,46.54709244,8.71080780,1976.52111816,6,6,1
1314890036.71115804,46.54709244,8.71080780,1976.50915527,6,6,1
1314890036.74737000,46.54709244,8.71080780,1976.49719238,6,6,1
1314890036.80724859,46.54709244,8.71080780,1976.48767090,6,6,1
1314890036.85932660,46.54709244,8.71080875,1976.48461914,6,6,1
1314890036.90826035,46.54709244,8.71080875,1976.47253418,6,6,1
1314890036.95923400,46.54709244,8.71080875,1976.46044922,6,6,1
1314890037.00811577,46.54709244,8.71080875,1976.44836426,6,6,1
1314890037.05923986,46.54709244,8.71080875,1976.44848633,6,6,1
1314890037.10846829,46.54709244,8.71080875,1976.43640137,6,6,1
1314890037.15813637,46.54709244,8.71080875,1976.42419434,6,6,1
1314890037.20824814,46.54709244,8.71080875,1976.41198730,6,6,1
1314890037.25813508,46.54709244,8.71080875,1976.39965820,6,6,1
1314890037.30724359,46.54709244,8.71080875,1976.39453125,6,6,1
1314890037.35809898,46.54709244,8.71080875,1976.38220215,6,6,1
1314890037.40730500,46.54709244,8.71080875,1976.36987305,6,6,1
1314890037.45932198,46.54709244,8.71080875,1976.35742188,6,6,1
1314890037.50739503,46.54709244,8.71080875,1976.34497070,6,6,1
1314890037.55929947,46.54709244,8.71080971,1976.33984375,6,6,1
1314890037.61124492,46.54709244,8.71080971,1976.32727051,6,6,1
1314890037.65611386,46.54709244,8.71080971,1976.31469727,6,6,1
1314890037.70825696,46.54709244,8.71080971,1976.30212402,6,6,1
1314890037.76024890,46.54709244,8.71080971,1976.28942871,6,6,1
1314890037.80783558,46.54709625,8.71080971,1976.29077148,6,6,1
1314890037.85623002,46.54709625,8.71080971,1976.27819824,6,6,1
1314890037.90824723,46.54709625,8.71080971,1976.26550293,6,6,1
1314890037.95595360,46.54709625,8.71080971,1976.25268555,6,6,1
1314890038.00786591,46.54709625,8.71080971,1976.23999023,6,6,1
1314890038.06023145,46.54709625,8.71080971,1976.24121094,6,6,1
1314890038.10796213,46.54709625,8.71080971,1976.22839355,6,6,1
1314890038.16031981,46.54709625,8.71080971,1976.21557617,6,6,1
1314890038.20771456,46.54709625,8.71080971,1976.20275879,6,6,1
1314890038.24732375,46.54709625,8.71080971,1976.18981934,6,6,1
1314890038.30723000,46.54709625,8.71081066,1976.19665527,6,6,1
1314890038.36033130,46.54709625,8.71081066,1976.18261719,6,6,1
1314890038.40820336,46.54709625,8.71081066,1976.16967773,6,6,1
1314890038.45929933,46.54709625,8.71081066,1976.15673828,6,6,1
1314890038.50033450,46.54709625,8.71081066,1976.14367676,6,6,1
1314890038.55936861,46.54709625,8.71081066,1976.15185547,6,6,1
1314890038.60840106,46.54709625,8.71081066,1976.13610840,6,6,1
1314890038.65935445,46.54709625,8.71081066,1976.12304688,6,6,1
1314890038.71125746,46.54709625,8.71081066,1976.10998535,6,6,1
1314890038.75558710,46.54709625,8.71081066,1976.09680176,6,6,1
1314890038.80834389,46.54709625,8.71081066,1976.10375977,6,6,1
1314890038.85935354,46.54709625,8.71081066,1976.09057617,6,6,1
1314890038.90724349,46.54709625,8.71081066,1976.07727051,6,6,1
1314890038.95626450,46.54709625,8.71081066,1976.06408691,6,6,1
1314890039.00747442,46.54709625,8.71081066,1976.05078125,6,6,1
1314890039.05634522,46.54710007,8.71081161,1976.05957031,6,6,1
1314890039.10730982,46.54710007,8.71081161,1976.04626465,6,6,1
1314890039.15931630,46.54710007,8.71081161,1976.03295898,6,6,1
1314890039.20805717,46.54710007,8.71081161,1976.01965332,6,6,1
1314890039.25091219,46.54710007,8.71081161,1976.00622559,6,6,1
1314890039.30807495,46.54710007,8.71081161,1976.01879883,6,6,1
1314890039.35639071,46.54710007,8.71081161,1975.99938965,6,6,1
1314890039.40834832,46.54710007,8.71081161,1975.98596191,6,6,1
1314890039.45636511,46.54710007,8.71081161,1975.97253418,6,6,1
1314890039.50826788,46.54710007,8.71081161,1975.95898438,6,6,1
1314890039.55634880,46.54710007,8.71081161,1975.97131348,6,6,1
1314890039.60863423,46.54710007,8.71081161,1975.95349121,6,6,1
1314890039.65701127,46.54710007,8.71081161,1975.93981934,6,6,1
1314890039.70734692,46.54710007,8.71081161,1975.92626953,6,6,1
1314890039.74729085,46.54710007,8.71081161,1975.91247559,6,6,1
1314890039.80728889,46.54710007,8.71081161,1975.90148926,6,6,1
1314890039.85528207,46.54710007,8.71081257,1975.91113281,6,6,1
1314890039.90828514,46.54710007,8.71081257,1975.89746094,6,6,1
1314890039.95773697,46.54710007,8.71081257,1975.88366699,6,6,1
1314890040.00721478,46.54710007,8.71081257,1975.86987305,6,6,1
1314890040.06175709,46.54710007,8.71081257,1975.88464355,6,6,1
1314890040.10815620,46.54710007,8.71081257,1975.87084961,6,6,1
1314890040.16211057,46.54710007,8.71081257,1975.85693359,6,6,1
1314890040.20727611,46.54710007,8.71081257,1975.84313965,6,6,1
1314890040.24938869,46.54710007,8.71081257,1975.82922363,6,6,1
1314890040.30727315,46.54710007,8.71081257,1975.85046387,6,6,1
1314890040.35931849,46.54710007,8.71081257,1975.83374023,6,6,1
1314890040.40725970,46.54710007,8.71081257,1975.81982422,6,6,1
1314890040.46176982,46.54710007,8.71081257,1975.80590820,6,6,1
1314890040.49932718,46.54710007,8.71081257,1975.79199219,6,6,1
1314890040.55613923,46.54710007,8.71081257,1975.81127930,6,7,1
1314890040.60867286,46.54710007,8.71081257,1975.79455566,6,7,1
1314890040.66024232,46.54710007,8.71081257,1975.78051758,6,7,1
1314890040.70728254,46.54710007,8.71081257,1975.76660156,6,7,1
1314890040.76022339,46.54710007,8.71081257,1975.75256348,6,7,1
1314890040.80725002,46.54710007,8.71081257,1975.77307129,6,7,1
1314890040.85929680,46.54710007,8.71081352,1975.75842285,6,7,1
1314890040.90727282,46.54710007,8.71081352,1975.74438477,6,7,1
1314890040.95925426,46.54710007,8.71081352,1975.73034668,6,7,1
1314890041.00825405,46.54710007,8.71081352,1975.71630859,6,7,1
1314890041.05922675,46.54710007,8.71081352,1975.73486328,6,7,1
1314890041.10792804,46.54710007,8.71081352,1975.72155762,6,7,1
1314890041.15929580,46.54710007,8.71081352,1975.70751953,6,7,1
1314890041.20773959,46.54710007,8.71081352,1975.69335938,6,7,1
1314890041.24741602,46.54710007,8.71081257,1975.67919922,6,7,1
1314890041.30823588,46.54710007,8.71081352,1975.70056152,6,7,1
1314890041.35633039,46.54710007,8.71081352,1975.68640137,6,7,1
1314890041.40732050,46.54710007,8.71081257,1975.67224121,6,7,1
1314890041.45633435,46.54710007,8.71081257,1975.65808105,6,7,1
1314890041.50730848,46.54710007,8.71081257,1975.64392090,6,7,1
1314890041.55634451,46.54710007,8.71081352,1975.66210938,6,7,1
1314890041.60837483,46.54710007,8.71081352,1975.64794922,6,7,1
1314890041.65934348,46.54710007,8.71081257,1975.63366699,6,7,1
1314890041.70736027,46.54710007,8.71081257,1975.61938477,6,7,1
1314890041.75934696,46.54710007,8.71081257,1975.60510254,6,7,1
1314890041.80735421,46.54710007,8.71081352,1975.61975098,6,7,1
1314890041.86033201,46.54710007,8.71081352,1975.60546875,6,7,1
1314890041.90776443,46.54710007,8.71081352,1975.59118652,6,7,1
1314890041.95633864,46.54710007,8.71081257,1975.57678223,6,7,1
1314890042.00838232,46.54710007,8.71081257,1975.56237793,6,7,1
1314890042.05632234,46.54710007,8.71081257,1975.58215332,6,7,1
1314890042.10839391,46.54710007,8.71081352,1975.56604004,6,7,1
1314890042.15922308,46.54710007,8.71081352,1975.55163574,6,7,1
1314890042.20833921,46.54710007,8.71081352,1975.53723145,6,7,1
1314890042.24732661,46.54710007,8.71081257,1975.52282715,6,7,1
1314890042.30854011,46.54710007,8.71081352,1975.54650879,6,7,1
1314890042.35632682,46.54710007,8.71081352,1975.53393555,6,7,1
1314890042.40827751,46.54710007,8.71081352,1975.51965332,6,7,1
1314890042.45532918,46.54710007,8.71081352,1975.50524902,6,7,1
1314890042.49635029,46.54710007,8.71081257,1975.49072266,6,7,1
1314890042.55535197,46.54710007,8.71081352,1975.52319336,6,6,1
1314890042.60822439,46.54710007,8.71081352,1975.50610352,6,6,1
1314890042.65529013,46.54710007,8.71081352,1975.49169922,6,6,1
1314890042.70849848,46.54710007,8.71081257,1975.47729492,6,6,1
1314890042.75930548,46.54710007,8.71081257,1975.46289062,6,6,1
1314890042.80719137,46.54710007,8.71081352,1975.49291992,6,6,1
1314890042.85929823,46.54710007,8.71081352,1975.47851562,6,6,1
1314890042.90829825,46.54710007,8.71081352,1975.46411133,6,6,1
1314890042.95928335,46.54710007,8.71081352,1975.44970703,6,6,1
1314890043.00723028,46.54709625,8.71081257,1975.43518066,6,6,1
1314890043.05628991,46.54710007,8.71081352,1975.46411133,6,6,1
1314890043.10742950,46.54709625,8.71081352,1975.44982910,6,6,1
1314890043.15928555,46.54709625,8.71081352,1975.43542480,6,6,1
1314890043.20838380,46.54709625,8.71081257,1975.42102051,6,6,1
1314890043.24731088,46.54709625,8.71081257,1975.40649414,6,6,1
1314890043.30732417,46.54709625,8.71081257,1975.43688965,6,6,1
1314890043.35920930,46.54710007,8.71081352,1975.41918945,6,6,1
1314890043.40816784,46.54709625,8.71081352,1975.40478516,6,6,1
1314890043.45930862,46.54709625,8.71081257,1975.39025879,6,6,1
1314890043.50732350,46.54709625,8.71081257,1975.37573242,6,6,1
1314890043.55929685,46.54710007,8.71081352,1975.40649414,6,6,1
1314890043.60720801,46.54709625,8.71081257,1975.39208984,6,6,1
1314890043.65623951,46.54709625,8.71081257,1975.37756348,6,6,1
1314890043.70824623,46.54709625,8.71081257,1975.36303711,6,6,1
1314890043.75624156,46.54709625,8.71081257,1975.34851074,6,6,1
1314890043.80801892,46.54709625,8.71081257,1975.38110352,6,6,1
1314890043.85601497,46.54709625,8.71081257,1975.36669922,6,6,1
1314890043.90789485,46.54709625,8.71081257,1975.35217285,6,6,1
1314890043.95934367,46.54709625,8.71081257,1975.33776855,6,6,1
1314890044.00792217,46.54709625,8.71081257,1975.32324219,6,6,1
1314890044.05624175,46.54710007,8.71081352,1975.35644531,6,6,1
1314890044.10732841,46.54709625,8.71081257,1975.34204102,6,6,1
1314890044.15587497,46.54709625,8.71081257,1975.32763672,6,6,1
1314890044.20787334,46.54709625,8.71081257,1975.31311035,6,6,1
1314890044.25575662,46.54709625,8.71081257,1975.29858398,6,6,1
1314890044.30731225,46.54709625,8.71081257,1975.34741211,6,6,1
1314890044.35574698,46.54709625,8.71081257,1975.33312988,6,6,1
1314890044.40834260,46.54709625,8.71081257,1975.31872559,6,6,1
1314890044.45633984,46.54709625,8.71081257,1975.30432129,6,6,1
1314890044.50732756,46.54709625,8.71081257,1975.28991699,6,6,1
1314890044.55565357,46.54709625,8.71081257,1975.33666992,6,6,1
1314890044.60834765,46.54709625,8.71081257,1975.32250977,6,6,1
1314890044.65931034,46.54709625,8.71081257,1975.30822754,6,6,1
1314890044.70724630,46.54709625,8.71081257,1975.29394531,6,6,1
1314890044.75629449,46.54709625,8.71081257,1975.27954102,6,6,1
1314890044.80755854,46.54709625,8.71081257,1975.32714844,6,6,1
1314890044.85933614,46.54709625,8.71081257,1975.31298828,6,6,1
1314890044.90834451,46.54709625,8.71081257,1975.29882812,6,6,1
1314890044.95930672,46.54709625,8.71081257,1975.28466797,6,6,1
1314890045.00822043,46.54709625,8.71081257,1975.27038574,6,6,1
1314890045.05933380,46.54709625,8.71081257,1975.32202148,6,6,1
1314890045.10831952,46.54709625,8.71081257,1975.30798340,6,6,1
1314890045.15621805,46.54709625,8.71081257,1975.29394531,6,6,1
1314890045.20723510,46.54709625,8.71081257,1975.27978516,6,6,1
1314890045.25538564,46.54709625,8.71081257,1975.26562500,6,6,1
1314890045.30739808,46.54709625,8.71081257,1975.32238770,6,6,1
1314890045.35622001,46.54709625,8.71081257,1975.30847168,6,6,1
1314890045.40743351,46.54709625,8.71081257,1975.29443359,6,6,1
1314890045.45613980,46.54709625,8.71081257,1975.28051758,6,6,1
1314890045.50737333,46.54709625,8.71081257,1975.26647949,6,6,1
1314890045.55520797,46.54709625,8.71081257,1975.32031250,6,6,1
1314890045.60834050,46.54709625,8.71081257,1975.30651855,6,6,1
1314890045.65624428,46.54709625,8.71081257,1975.29260254,6,6,1
1314890045.70720315,46.54709625,8.71081257,1975.27868652,6,6,1
1314890045.75523949,46.54709625,8.71081257,1975.26477051,6,6,1
1314890045.80730939,46.54709625,8.71081257,1975.31481934,6,6,1
1314890045.86172295,46.54709625,8.71081257,1975.30981445,6,6,1
1314890045.90836930,46.54709625,8.71081257,1975.29602051,6,6,1
1314890045.95622182,46.54709625,8.71081257,1975.28234863,6,6,1
1314890046.00723767,46.54709625,8.71081257,1975.26843262,6,6,1
1314890046.05919909,46.54710007,8.71081352,1975.32067871,6,6,1
